COSMOS 1691 DEB, 16272

Orbit data source: Space-Track

COSMOS 1691 DEB, 16272 is space debris in LEO originally from a launch on Wed, 09 Oct 1985 UTC launched from the Plesetsk Missile And Space Complex (PKMTR). Debris objects in space refer to the collection of defunct objects orbiting the Earth. Examples of debris include non-operational satellites, rocket bodies, and fragments generated from explosions, collisions, or faulty payload assembly.

Loading next visibility...
Identifier
16272, 1985-094R
Orbit
LEO
Country
Flag of CISCIS
Related business
Manufacturer
Unknown
Mission
Spacecraft
Bus & Motor
Unknown
Mass
Unknown
Launch date (UTC)
1985-10-09 (40 years ago)
Launch vehicle
Unknown
Launch site
Plesetsk Missile And Space Complex (PKMTR)
Object type
Payload
Rocket body
Debris
Shape & HBR
Unknown shape, 0.1 m
Radar Cross Section
Small (<0.1 m²)

Expand to show TLE details & history
Last TLE update: 15 hours ago

TLE from 15 hours ago
0 COSMOS 1691 DEB
1 16272U 85094R   25294.98433119  .00000371  00000-0  16867-2 0  9995
2 16272  82.6130 291.3296 0043761 143.7161 245.1047 12.75148414857657
Epoch: 2025-10-21T23:37Z
TLE epoch observation values (Epoch: 2025-10-21T23:37:26.214Z)
Latitude
28.15023°
Longitude
-89.73596°
Altitude
1,378.761 km
Speed
7.166 km/s
True Right ascension
19h 41m 09s
True Declination
28° 01' 08"
Sunlit
Object was in daylight at epoch
Visualization orbit readout
Latitude
Unknown
Longitude
Unknown
Altitude
Unknown
Speed
Unknown
Apparent Right ascension
Unknown
Apparent Declination
Unknown
Sunlit
N/A
Visualization observer readout
Local Sidereal Time
10:06:23
Azimuth
Unknown
Elevation
Unknown
Doppler factor
Unknown
Orbital elements
Apogee altitude
1,392.195 km
Perigee altitude
1,324.484 km
Semi-major axis
7,736.476 km
Eccentricity
0.00438
Inclination
82.613°
RAAN
291.3296°
Arg. of periapsis
143.7161°
True anomaly
244.65088°
Mean anomaly
245.1047°
Eccentric anomaly
244.87769°
Mean motion
3.18954 °/min
Orbital period
112.87 mins
BSTAR
0.0016867
Loading maneuver chart data...
Computing Atmospheric mass density...
Loading historical data...
Loading historical data...
Loading historical data...
Loading historical data...
Loading historical data...
Loading historical data...
Loading historical data...

Documentation

Showing up to 5 results
|